User: anonymous   Login
Location: ??????????
(54.4061°N, 22.6114°E)
Time: 19:55:59
(UTC+00:00)
Language:

Meteor 1-16 Rocket - Orbit

View from above orbital plane
View from above orbital plane
View from above satellite
View from above satellite

Ground track
Ground track

The orbit data is extracted from the following two-line orbital elements,

1  7210U 74011B   19339.44812743 -.00000099  00000-0 -57850-4 0  9990
2  7210  81.2379 245.0900 0080664 335.5697  24.1660 14.13081427357256
Epoch (UTC): 05 December 2019 10:45:18
Eccentricity: 0.0080664
inclination: 81.2379°
perigee height: 790 km
apogee height: 907 km
right ascension of ascending node: 245.0900°
argument of perigee: 335.5697°
revolutions per day: 14.13081427
mean anomaly at epoch: 24.1660°
orbit number at epoch: 35725

The dashed part of the orbit path shows where the satellite is in the earth's shadow,  

DLR